Powrót do katalogu

STARLINK-32541

AktywnyŁącznośćVLEO
NORAD 61916·PAYLOAD·🇺🇸 United States

Wystrzelony Nov 11, 2024 z Cape Canaveral Space Force Station

Loading…

Następne Przeloty (najbliższe 24 godziny)

TLE

ŚwieżeSource: CelesTrak SupGP

Epoka: Sep 15, 2026, 02:00 UTC

1 61916C 24207E   26258.08381944  .00034617  00000+0  12540-2 0  2580
2 61916  43.0006 295.8737 0001336 268.0157 116.6118 15.27557728    15

Śledź STARLINK-32541 w czasie rzeczywistym z AllMySat

Download on the App Store